Toledo Metcalf, OH

3:34 AM EDT on April 26, 2017 (GMT -0400)
Metcalf

Weather History for KTDZ - May, 2013

Change the Weather History Date:

Thursday, May 23, 2013

  Actual Average (KTOL) Record (KTOL)
Temperature  
Mean Temperature 58 °F -  
Max Temperature 70 °F 72 °F 91 °F (1964)
Min Temperature 46 °F 49 °F 27 °F (1963)
Degree Days  
Heating Degree Days 7    
Growing Degree Days 8 (Base 50)    
Moisture  
Dew Point 51 °F    
Average Humidity 84    
Maximum Humidity 94    
Minimum Humidity 63    
Precipitation  
Precipitation 0.27 in - - ()
Sea Level Pressure  
Sea Level Pressure 29.91 in    
Wind  
Wind Speed 11 mph (NW)    
Max Wind Speed 23 mph    
Max Gust Speed 36 mph    
Visibility 9 miles    
Events Rain    
Averages and records for this station are not official NWS values.
T = Trace of Precipitation, MM = Missing Value Source: NWS Daily Summary

Daily Weather History Graph

Daily Weather History Graph

Search for Another Location

Airport or City:

Trip Planner

Search our weather history database for the weather conditions in past years. The results will help you decide how hot, cold, wet, or windy it might be!

Date:

Astronomy

May. 23, 2013 Rise Set
Actual Time 6:07 AM EDT 8:54 PM EDT
Civil Twilight 5:35 AM EDT 9:26 PM EDT
Nautical Twilight 4:54 AM EDT 10:07 PM EDT
Astronomical Twilight 4:07 AM EDT 10:55 PM EDT
Moon 7:24 PM EDT (5/23) 4:53 AM EDT (5/23)
Length of Visible Light 15h 51m
Length of Day
14h 46m
Waxing Gibbous, 97% of the Moon is Illuminated
May 23
Waxing Gibbous
May 25
Full
May 31
Last Quarter
Jun 8
New
Jun 16
First Quarter

Hourly Weather History & Observations

Time (EDT) Temp. Windchill Dew Point Humidity Pressure Visibility Wind Dir Wind Speed Gust Speed Precip Events Conditions
12:53 AM 63.0 °F - 59.0 °F 87% 29.74 in 10.0 mi WSW 5.8 mph - N/A   Clear
1:53 AM 63.0 °F - 60.1 °F 90% 29.73 in 10.0 mi SW 6.9 mph - N/A   Mostly Cloudy
2:53 AM 63.0 °F - 59.0 °F 87% 29.73 in 10.0 mi SW 5.8 mph - N/A   Partly Cloudy
3:53 AM 63.0 °F - 57.9 °F 84% 29.73 in 10.0 mi SW 6.9 mph - N/A   Mostly Cloudy
4:53 AM 63.0 °F - 57.9 °F 84% 29.74 in 10.0 mi SW 6.9 mph - N/A   Mostly Cloudy
5:53 AM 62.1 °F - 57.9 °F 86% 29.75 in 10.0 mi SW 5.8 mph - N/A   Overcast
6:53 AM 62.1 °F - 57.9 °F 86% 29.77 in 10.0 mi WSW 8.1 mph - N/A   Overcast
7:53 AM 63.0 °F - 59.0 °F 87% 29.78 in 10.0 mi WSW 8.1 mph - N/A   Overcast
8:53 AM 64.0 °F - 59.0 °F 84% 29.79 in 10.0 mi SW 9.2 mph - N/A   Overcast
9:53 AM 64.9 °F - 59.0 °F 81% 29.80 in 10.0 mi SW 8.1 mph - N/A   Overcast
10:53 AM 66.9 °F - 55.9 °F 68% 29.81 in 10.0 mi WSW 13.8 mph 21.9 mph N/A   Overcast
11:53 AM 68.0 °F - 55.9 °F 65% 29.80 in 10.0 mi West 18.4 mph - N/A   Mostly Cloudy
12:53 PM 70.0 °F - 57.0 °F 63% 29.80 in 10.0 mi WSW 16.1 mph 20.7 mph 0.00 in   Mostly Cloudy
1:53 PM 69.1 °F - 55.9 °F 63% 29.80 in 10.0 mi West 18.4 mph 27.6 mph 0.00 in   Mostly Cloudy
2:53 PM 64.0 °F - 57.9 °F 80% 29.83 in 7.0 mi NNW 20.7 mph 29.9 mph 0.01 in Rain Light Rain
2:57 PM 59.0 °F - 55.4 °F 88% 29.85 in 3.0 mi North 23.0 mph 35.7 mph 0.01 in Rain Rain
3:00 PM 57.2 °F - 53.6 °F 88% 29.85 in 1.8 mi North 18.4 mph 35.7 mph 0.06 in Rain Heavy Rain
3:02 PM 55.4 °F - 53.6 °F 94% 29.86 in 1.5 mi North 19.6 mph 35.7 mph 0.09 in Rain Heavy Rain
3:18 PM 53.6 °F - 51.8 °F 94% 29.87 in 2.5 mi NNE 15.0 mph 21.9 mph 0.16 in Rain Rain
3:29 PM 53.6 °F - 51.8 °F 94% 29.88 in 3.0 mi North 15.0 mph 23.0 mph 0.18 in Rain Light Rain
3:44 PM 53.6 °F - 50.0 °F 88% 29.89 in 10.0 mi North 15.0 mph 21.9 mph 0.18 in   Overcast
3:53 PM 53.1 °F - 48.9 °F 86% 29.89 in 10.0 mi North 13.8 mph 23.0 mph 0.18 in   Overcast
4:53 PM 50.0 °F - 46.0 °F 86% 29.93 in 10.0 mi North 16.1 mph 24.2 mph 0.01 in Rain Light Rain
5:06 PM 50.0 °F - 46.4 °F 87% 29.94 in 10.0 mi North 12.7 mph 21.9 mph 0.00 in Rain Light Rain
5:37 PM 48.2 °F - 46.4 °F 93% 29.97 in 7.0 mi North 15.0 mph 20.7 mph 0.01 in Rain Light Rain
5:45 PM 48.2 °F - 46.4 °F 93% 29.97 in 5.0 mi North 11.5 mph - 0.02 in Rain Light Rain
5:53 PM 48.9 °F - 46.0 °F 90% 29.98 in 3.0 mi North 13.8 mph 19.6 mph 0.03 in Rain Light Rain
6:51 PM 48.2 °F - 44.6 °F 87% 30.01 in 10.0 mi North 15.0 mph 21.9 mph 0.03 in Rain Light Rain
6:53 PM 48.0 °F - 44.1 °F 86% 30.01 in 10.0 mi North 12.7 mph 21.9 mph 0.03 in Rain Light Rain
7:11 PM 48.2 °F - 44.6 °F 87% 30.02 in 10.0 mi North 11.5 mph 21.9 mph 0.00 in   Overcast
7:18 PM 48.2 °F - 44.6 °F 87% 30.02 in 10.0 mi North 11.5 mph - 0.00 in   Overcast
7:53 PM 46.9 °F - 43.0 °F 86% 30.05 in 10.0 mi NNW 11.5 mph - 0.00 in   Overcast
8:17 PM 46.4 °F 39.8 °F 42.8 °F 87% 30.06 in 10.0 mi North 16.1 mph 20.7 mph 0.00 in Rain Light Rain
8:29 PM 46.4 °F 39.2 °F 42.8 °F 87% 30.07 in 10.0 mi North 18.4 mph 25.3 mph 0.00 in Rain Light Rain
8:53 PM 46.0 °F 38.8 °F 42.1 °F 86% 30.09 in 10.0 mi North 18.4 mph 27.6 mph 0.01 in Rain Light Rain
9:53 PM 46.0 °F 38.5 °F 39.9 °F 79% 30.12 in 10.0 mi North 19.6 mph 27.6 mph 0.00 in   Overcast
10:06 PM 46.4 °F 40.4 °F 39.2 °F 76% 30.12 in 10.0 mi North 13.8 mph 26.5 mph N/A   Overcast
10:53 PM 46.0 °F 39.9 °F 39.0 °F 76% 30.14 in 10.0 mi North 13.8 mph 19.6 mph N/A   Overcast
11:53 PM 46.0 °F 41.9 °F 37.9 °F 73% 30.16 in 10.0 mi North 8.1 mph 20.7 mph N/A   Overcast